Weather in Nakhichevan

Azerbaijan     39°13′15″N   45°24′27″E
temp.,
°C
wind,
m/s
gust,
m/s
humid.,
%
clouds,
%
prec.,
mm/h
press.,
hPa
HPBL,
m
30 june, thu
thu3001:00+22e34430 0.0 100899
04:00+21e22470 0.0 100943
07:00+22e22450 0.0 1010165
10:00+27s23310 0.0 10091105
13:00+31ssw34220 0.0 10061860
16:00+33sse65160 0.0 10032449
19:00+31ese56232 0.0 1003913
22:00+24ene34385 0.0 1006114
1 july, fri
fri101:00+22ene23410 0.0 100652
04:00+20e22440 0.0 100744
07:00+21ese12420 0.0 1007122
10:00+26ssw22310 0.0 1006912
13:00+31ssw23230 0.0 10031514
16:00+34sse55180 0.0 10002058
19:00+32sse55210 0.0 999992
22:00+25e343417 0.0 1002183
2 july, sat
sat201:00+22ene32321 0.0 100340
04:00+20e22340 0.0 100528
07:00+21e12340 0.0 1006118
10:00+25sw21270 0.0 10051101
13:00+29sw22230 0.0 10041807
16:00+32s22203 0.0 10012151
19:00+31nw442357 0.0 10011355
22:00+25e573179 0.0 1005410
3 july, sun
sun301:00+23ese233610 0.0 1007315
04:00+19ese334927 0.0 1009153
07:00+19se335073 0.0 1011345
10:00+22s324229 0.0 10111412
13:00+26ssw333228 0.0 10082136
16:00+28s542953 0.0 10072324
19:00+24se66390 0.0 1008762
22:00+19ese355130 0.0 1012269
4 july, mon
mon401:00+18ese23538 0.0 1013214
04:00+16ese22600 0.0 101461
07:00+17se12550 0.0 1015210
10:00+21ssw33400 0.0 10141336
13:00+26sw34302 0.0 10112054
16:00+29s54230 0.0 10092540
19:00+26ese56270 0.0 10091037
22:00+20e34420 0.0 1012115